Location: Hillsboro
(38.3483°N, 97.1938°W)
Time: 19:50:53
(UTC-05:00)

Daily predictions for brighter satellites

Satellite Brightness Start Highest point End
(mag) Time Altitude Azimuth Time Altitude Azimuth Time Altitude Azimuth
Tsikada Rocket 4.0 21:02:14 10° S 21:08:26 80° E 21:14:37 10° N
COSMOS 2455 2.9 21:06:12 10° SSW 21:12:06 62° ESE 21:18:02 10° NE
Molniya-1 2.9 21:10:31 10° SSW 21:12:18 32° SE 21:13:49 10° NE
GPS 2-04 Rocket1 2.7 21:10:56 10° W 21:14:43 57° S 21:18:17 10° ESE
Meteor 1-29 4.4 21:12:32 10° NE 21:15:13 20° E 21:17:51 10° SE
USA 186 1.4 21:13:51 10° S 21:16:30 81° W 21:19:23 10° NNW
Lacrosse 5 rocket 0.9 21:13:13 10° SW 21:16:46 72° SE 21:20:22 10° NE
ATLAS 5 CENTAUR R/B 3.8 21:11:53 10° N 21:16:48 26° NE 21:22:03 10° E
Cosmos 1346 Rocket 3.0 21:13:42 10° N 21:17:37 54° E 21:21:33 10° SSE
Cosmos 2034 Rocket 4.3 21:11:43 10° NNW 21:17:53 71° W 21:23:58 10° S
Meteor 2-10 Rocket 4.2 21:12:04 10° NNW 21:17:53 71° W 21:23:37 10° S
Helios 1A 3.7 21:16:24 10° SE 21:20:16 38° ENE 21:24:10 10° N
Aureole 3 4.2 21:18:32 10° SE 21:20:47 19° E 21:22:59 10° NE
Cosmos 1634 Rocket 4.3 21:18:56 10° N 21:25:04 51° E 21:31:11 10° SSE
DELTA 2 R/B(2) 3.0 21:25:39 10° W 21:27:52 79° N 21:29:26 10° ENE
ERS-1 Rocket 4.1 21:23:48 10° SE 21:28:01 28° ENE 21:32:14 10° N
BREEZE-M DEB (TANK) 4.4 21:25:58 10° NNW 21:28:26 22° NNE 21:34:09 10° E
Cosmos 1933 4.5 21:25:06 10° NNW 21:28:57 45° W 21:32:47 10° SSW
Cosmos 1939 Rocket 3.0 21:25:02 10° SSE 21:29:08 65° ENE 21:33:13 10° N
Cosmos 1408 3.8 21:28:33 10° SE 21:31:36 25° E 21:34:41 10° NE
Cosmos 1862 Rocket 4.4 21:28:16 10° NNW 21:32:39 53° W 21:37:00 10° S
ISS -2.4 21:29:41 10° WSW 21:32:48 42° NW 21:35:55 10° NE
Spot 2 Rocket 4.3 21:31:16 10° S 21:36:13 52° W 21:41:14 10° NNW
Tiangong 2 1.5 21:35:58 10° WNW 21:39:07 52° SSW 21:41:25 17° SE
Resurs 01 Rocket 3.2 21:36:50 10° SSW 21:40:52 35° W 21:44:57 10° NNW
CZ-4B DEB 3.0 21:41:38 16° SE 21:43:40 43° ENE 21:46:29 10° N
USA 215 4.2 21:38:25 10° E 21:44:21 38° NNE 21:50:18 10° NNW
Cosmos 1825 2.7 21:45:39 12° SSE 21:48:51 39° E 21:52:24 10° NNE
Okean 1-7 3.1 21:48:24 10° N 21:52:46 59° E 21:56:17 15° SSE
Meteor 2-3 Rocket 4.3 21:47:17 10° SSW 21:52:55 61° W 21:58:32 10° N
Shenzhou-11 Module 3.4 21:52:00 10° W 21:54:42 28° SSW 21:56:10 19° SSE
Cosmos 1782 3.0 21:53:22 10° N 21:57:17 53° E 21:59:51 20° SSE
Cosmos 2279 Rocket 4.2 21:51:31 10° N 21:57:39 54° E 22:02:32 16° SSE
Milstar 3 4.1 21:47:57 10° WSW 21:59:50 40° S 22:05:32 17° ESE
SPOT 5 4.0 21:56:52 18° ESE 22:00:01 33° ENE 22:04:41 10° N
Envisat 4.2 21:58:35 10° S 22:03:21 41° W 22:08:10 10° NNW
Cosmos 372 Rocket 3.9 21:59:00 10° S 22:04:04 68° ESE 22:09:09 10° NNE
CENTAUR R/B 2.5 21:58:31 10° SSW 22:04:26 89° ESE 22:11:12 10° NNE
MetOp-A 4.4 22:01:18 19° SE 22:05:02 54° ENE 22:10:14 10° N
Cosmos 468 4.5 22:02:57 10° NNW 22:08:14 86° ENE 22:11:59 19° SSE
Cosmos 1703 Rocket 4.2 22:05:41 10° NNW 22:10:00 56° W 22:14:15 10° S
Cosmos 1943 Rocket 2.1 22:09:19 10° SSW 22:14:55 88° WNW 22:20:30 10° NNE
Cosmos 1862 3.5 22:14:36 28° SSE 22:16:19 48° E 22:20:09 10° NNE
deb Kosmos-1763 4.1 22:12:40 10° NNW 22:16:26 65° ENE 22:17:52 34° SE
DNEPR-1 R/B 4.2 22:12:34 10° SW 22:17:53 67° WNW 22:22:25 10° NNE
Cosmos 1269 Rocket 4.0 22:13:26 10° NNW 22:18:43 68° ENE 22:21:35 27° SSE
Cosmos 1733 Rocket 3.5 22:17:38 30° SE 22:19:02 40° E 22:23:05 10° NNE
Helios 1B rocket 3.7 22:15:39 10° N 22:19:33 43° WNW 22:23:25 10° SW
Cosmos 1125 Rocket 3.8 22:14:22 10° SSW 22:19:35 71° WNW 22:24:49 10° NNE
Cosmos 2084 4.3 22:21:07 10° NW 22:24:43 38° WSW 22:26:40 23° S
Cosmos 1340 2.6 22:21:20 10° N 22:25:08 73° E 22:26:25 39° SSE
SAR-Lupe-4 4.4 22:26:34 21° SSW 22:28:39 46° W 22:32:07 10° NNW
Lacrosse 4 Rocket 1.6 22:24:56 10° NNW 22:29:24 64° ENE 22:30:55 38° SE
NOAA 11 4.3 22:26:10 20° S 22:30:04 76° WSW 22:35:35 10° NNW
Cosmos 2344 3.5 22:23:54 10° SSW 22:31:33 79° ESE 22:39:51 10° NE
ATLAS CENTAUR R/B 3.3 22:39:00 15° ENE 22:39:00 15° ENE 22:39:54 10° NE
SL-08 RB Rocket 3.7 22:39:05 40° SSE 22:40:44 74° ENE 22:45:24 10° N
Cosmos 2369 Rocket 4.1 22:35:57 10° WSW 22:40:55 31° WNW 22:45:57 10° N
Cosmos 1606 3.8 22:39:53 10° NNW 22:43:26 39° W 22:45:19 23° SSW
Cosmos 158 Rocket 4.3 22:43:05 10° NNW 22:47:51 53° WSW 22:50:03 29° SSW
Cosmos 494 Rocket 4.5 22:43:37 10° N 22:48:36 44° ENE 22:49:47 38° ESE
Cosmos 1867 4.2 22:45:03 10° NNW 22:50:15 43° NE 22:51:55 34° E
Cosmos 1833 4.2 22:45:42 10° NNW 22:51:30 86° WSW 22:53:42 40° SSE
CARTOSAT-1 4.5 22:53:20 33° ENE 22:53:28 33° ENE 22:57:21 10° N
H-2A R/B 2.1 22:51:42 42° SSE 22:53:37 79° ENE 22:58:58 10° N
GPS 2-04 Rocket1 3.8 22:50:48 10° W 22:53:12 28° SW 22:53:12 28° SW
Lacrosse 5 rocket 4.3 22:54:17 10° WNW 22:56:21 14° NNW 22:58:26 10° N
Cosmos 1674 Rocket 3.4 22:53:37 10° N 22:57:56 70° E 22:58:18 65° ESE
Cosmos 1378 Rocket 4.3 22:54:01 10° N 22:58:03 37° ENE 22:58:03 37° ENE
Cosmos 2297 Rocket 4.4 22:58:41 10° NNE 23:01:09 13° NE 23:03:17 11° ENE
Landsat 7 3.9 23:00:47 54° ESE 23:01:29 61° ENE 23:06:10 10° N
ATLAS 5 CENTAUR R/B 2.6 22:55:52 10° NW 23:01:56 65° WSW 23:04:25 38° S
ERS-1 Rocket 4.4 23:03:38 18° SSW 23:06:39 32° W 23:11:08 10° NW
OAO 3 Copernicus 4.3 23:04:23 10° WSW 23:09:12 60° S 23:09:12 60° S
ISS -0.4 23:08:52 10° NW 23:09:57 11° NNW 23:11:02 10° N
H-2A R/B 3.3 23:10:50 28° NE 23:10:50 28° NE 23:13:52 10° N
Cosmos 1656 Rocket 3.9 23:06:47 15° SSW 23:11:22 68° WNW 23:16:53 10° NNE
Okean 3 3.7 23:08:24 10° N 23:12:09 57° NE 23:12:09 57° NE
IGS 5A 3.9 23:13:00 48° NE 23:13:00 48° NE 23:16:38 10° N
ARGOS 3.9 23:10:23 28° SSW 23:12:47 45° W 23:17:55 10° NNW
Terra 1.9 23:16:28 60° E 23:16:38 61° ENE 23:21:20 10° N
Meteor 1-27 Rocket 4.5 23:11:52 10° NNW 23:17:20 47° W 23:19:49 29° SSW
Nadezhda 4 Rocket 4.4 23:14:45 22° SSW 23:18:47 59° W 23:24:53 10° N
Cosmos 1092 Rocket 3.9 23:16:33 40° S 23:18:57 85° W 23:25:08 10° N
BREEZE-M DEB (TANK) 3.4 23:24:46 54° E 23:24:46 54° E 23:33:51 10° ENE
USA 215 3.3 23:25:19 49° SSE 23:27:04 68° SW 23:33:36 10° NW
Cosmos 1627 Rocket 4.4 23:27:04 57° SSE 23:28:20 75° E 23:34:40 10° N
Cosmos 1908 Rocket 3.7 23:32:44 68° WNW 23:32:44 68° WNW 23:37:09 10° N
Meteor 1-20 Rocket 4.3 23:33:26 59° E 23:33:27 59° E 23:39:02 10° NNE
Cosmos 1553 Rocket 4.5 23:29:57 10° N 23:35:58 43° ENE 23:36:24 42° E
Meteor 1-25 Rocket 4.1 23:41:22 75° SE 23:41:42 78° E 23:47:33 10° NNE
Okean 2 Rocket 4.1 23:46:07 39° NNE 23:46:07 39° NNE 23:49:04 10° NNE
CZ-2C R/B 4.4 23:43:31 10° NE 23:45:42 19° ENE 23:45:42 19° ENE
Cosmos 2251 Rocket 3.6 23:42:57 10° NNW 23:48:07 63° WSW 23:48:10 63° WSW
Cosmos 2227 Rocket 3.1 23:46:22 10° N 23:51:35 37° ENE 23:51:48 37° ENE
